STARLINK-30512, 57976

Orbit data source: Space-Track

STARLINK-30512, 57976 is a payload satellite owned by SpaceX/Seattle (US) in LEO that was launched on Sat, 30 Sep 2023 UTC via an FALCON 9 launch vehicle from the Air Force Eastern Test Range (AFETR). Payload-class satellites include a variety of spacecraft equipped with specific instruments for various scientific and technological missions. These include communications satellites like Starlink; space stations such as the ISS; scientific satellites like the Hubble; Earth observation satellites from companies like Planet Labs, Umbra, and HawkEye 360; GPS; miniature CubeSats for education and research; and military/defense satellites.

Loading next visibility...
Identifier
57976, 2023-151N
Orbit
LEO
Country
Flag of USUS
Related business
Manufacturer
SpaceX/Seattle
Mission
Operational Commercial Communications
Bus & Motor
STARLINK V2M, Unknown motor
Mass
730 kg wet, ~700 kg dry
Launch date (UTC)
2023-09-30 (3 years ago)
Launch vehicle
FALCON 9
Launch site
Air Force Eastern Test Range (AFETR)
Object type
Payload
Rocket body
Debris
Shape & HBR
Box + 2 Pan, 17.7 m
Radar Cross Section
33.884 m², Large (>1 m²)

Expand to show TLE details & history
Last TLE update: 12 hours ago

TLE from 12 hours ago
0 STARLINK-30512
1 57976U 23151N   26129.99499251 -.00000848  00000-0 -21292-4 0  9996
2 57976  43.0043 349.6019 0001188 266.2743  93.7972 15.27575405145143
Epoch: 2026-05-09T23:52Z
TLE epoch observation values (Epoch: 2026-05-09T23:52:47.352Z)
Latitude
-0.00009°
Longitude
123.60007°
Altitude
482.893 km
Speed
7.626 km/s
True Right ascension
23h 18m 24s
True Declination
0° 00' 00"
Sunlit
Object was in daylight at epoch
Visualization orbit readout
Latitude
Unknown
Longitude
Unknown
Altitude
Unknown
Speed
Unknown
Apparent Right ascension
Unknown
Apparent Declination
Unknown
Sunlit
N/A
Visualization observer readout
Local Sidereal Time
19:51:20
Azimuth
Unknown
Elevation
Unknown
Doppler factor
Unknown
Orbital elements
Apogee altitude
485.823 km
Perigee altitude
484.192 km
Semi-major axis
6,863.144 km
Eccentricity
0.00012
Inclination
43.0043°
RAAN
349.6019°
Arg. of periapsis
266.2743°
True anomaly
93.81078°
Mean anomaly
93.7972°
Eccentric anomaly
93.80399°
Mean motion
3.81732 °/min
Orbital period
94.31 mins
BSTAR
-0.000021292
Loading maneuver chart data...
Computing Atmospheric mass density...
Loading historical data...
Loading historical data...
Loading historical data...
Loading historical data...
Loading historical data...
Loading historical data...
Loading historical data...

Documentation

Showing up to 5 results
|